Temperature
21 20 20 21 22 22 22 22 22 23 25 24 23 22 23 25 25 24 23 23 24 23 23 23 23 22 22 21 21 20 20 20 19 19 18 18 17 17 18 18 18 18 18 18
20 20 22 23 23 23 23 22 22 23 24 24 23 23 23 23 23 23 22 23 23 23 22 22 22 21 21 21 20 20 19 19 19 19 19 18 17 17 18 18 17 17 17 18
20 21 23 23 23 23 23 22 22 22 23 23 22 21 21 22 23 22 22 23 23 23 22 22 21 21 20 20 19 19 19 19 18 18 18 18 17 17 17 17 17 17 17 17
20 22 23 23 23 23 22 23 23 23 22 20 22 19 20 22 22 21 21 22 23 23 23 22 21 21 20 19 19 19 18 18 18 18 17 17 17 17 17 17 17 17 17 17
21 22 22 22 23 23 22 23 24 24 22 20 20 20 19 20 20 20 20 22 23 23 23 22 22 21 20 19 18 18 17 17 17 17 17 16 16 17 17 17 17 17 16 17
21 22 23 23 24 24 24 23 22 19 18 19 20 19 19 19 20 20 21 22 23 23 22 22 21 20 20 19 18 18 17 17 17 16 16 16 16 16 17 17 16 16 16 16
21 22 23 24 23 24 23 19 18 19 17 18 20 20 19 21 21 21 21 22 23 22 22 22 22 21 20 19 19 18 17 17 17 16 16 16 16 16 16 16 16 16 16 16
19 20 23 23 22 21 21 19 18 18 18 18 21 21 20 22 22 23 23 23 23 22 22 22 22 21 21 20 19 18 18 17 16 16 16 16 16 16 16 16 16 16 16 16
19 20 23 24 23 22 21 19 19 18 19 19 19 21 21 22 21 21 22 23 23 23 23 22 22 21 21 20 19 18 18 17 17 16 16 16 16 16 16 16 16 16 16 16
20 20 22 24 24 23 22 21 18 18 18 18 19 20 19 21 21 21 21 22 23 23 23 22 22 21 21 20 19 18 17 17 17 16 16 16 16 16 16 16 16 16 16 16
20 19 20 22 22 22 22 21 20 18 17 17 17 18 19 20 20 20 21 23 23 23 23 23 22 21 20 19 19 18 17 17 16 16 16 15 15 15 16 16 16 16 16 16
17 16 17 19 20 21 21 20 18 17 17 16 16 17 20 20 21 21 22 23 24 24 23 23 22 21 20 19 19 18 17 17 16 16 16 15 15 15 15 16 16 16 16 16
17 15 16 17 18 19 19 19 17 16 16 16 16 18 20 19 20 22 23 24 24 23 23 23 22 21 20 20 19 19 18 17 17 16 16 15 15 15 15 15 16 16 16 16
17 15 15 17 17 18 18 19 18 16 15 16 16 18 19 20 20 21 23 24 24 23 23 22 22 21 21 20 20 19 19 18 17 16 16 16 15 15 15 15 16 16 16 15
16 15 16 16 18 19 19 19 19 18 17 16 17 18 19 19 19 21 23 23 23 23 22 22 22 21 21 20 20 19 19 18 17 17 16 16 16 16 15 15 15 15 15 15
15 16 16 17 18 18 18 18 19 19 18 18 18 18 19 20 20 21 22 23 23 23 22 22 22 21 21 21 20 19 19 18 17 17 16 16 16 16 15 15 15 15 15 15
15 15 15 15 16 16 16 18 19 19 19 19 18 19 19 19 20 21 23 23 23 23 22 22 21 21 20 20 19 19 19 18 17 17 16 16 16 16 15 15 15 15 15 15
15 15 14 14 15 15 17 17 19 19 19 19 19 19 20 19 21 22 23 23 22 22 22 21 20 19 19 18 18 18 18 17 17 17 16 16 15 15 15 15 15 15 15 15
14 14 13 13 14 15 17 18 18 18 19 20 20 20 20 21 20 20 22 22 22 21 21 20 19 18 18 17 18 18 17 17 17 17 16 16 16 15 15 15 15 15 14 14
13 13 13 13 14 15 17 19 19 19 19 20 20 20 20 19 17 18 20 21 21 20 20 19 18 17 16 16 16 16 16 16 16 16 16 16 15 15 15 15 14 14 14 14
13 13 13 13 14 15 17 18 19 19 19 21 22 22 21 19 20 21 20 20 20 20 19 18 17 16 16 15 15 15 15 15 15 15 15 15 15 14 14 14 14 13 13 13
14 14 13 13 13 15 18 18 19 20 21 22 23 23 23 22 22 21 20 19 19 19 17 16 16 15 15 15 14 14 14 13 13 13 13 13 13 13 13 13 13 13 13 12
14 14 13 14 14 16 17 18 20 22 23 23 23 23 22 22 21 20 19 19 18 17 16 16 15 15 15 14 14 14 13 13 12 12 12 12 12 12 12 12 12 12 12 12
13 12 13 14 15 15 16 18 19 22 23 23 23 22 22 21 21 20 19 18 17 16 16 15 15 15 14 14 14 13 13 12 12 11 11 11 11 11 11 12 12 12 12 12
12 11 12 13 13 14 16 16 18 21 22 23 22 22 22 21 21 20 19 18 17 16 16 16 15 15 14 14 14 13 12 12 11 11 11 10 10 10 11 11 11 11 11 12
12 12 12 12 13 13 14 15 17 19 21 22 22 22 21 21 21 20 19 18 17 16 16 16 15 15 14 14 13 13 12 12 11 11 11 10 10 10 10 11 11 11 11 11
Wind_Speed
3 3 3 5 4 3 3 4 6 6 5 4 6 8 10 8 4 4 9 9 9 7 5 7 7 7 7 8 10 11 11 10 11 8 7 5 5 5 5 5 7 8 9 10
3 4 7 8 8 6 5 6 7 7 7 5 6 8 8 6 5 9 13 10 9 7 5 6 7 7 7 7 8 8 9 10 10 8 6 4 4 3 3 2 3 6 8 9
6 7 9 11 8 6 6 6 7 7 6 8 6 8 8 6 3 7 10 9 9 10 9 7 7 7 8 8 9 9 9 9 8 7 4 4 2 1 1 1 2 3 6 8
7 11 13 13 11 8 9 9 8 6 3 5 3 6 10 4 5 7 8 8 9 8 8 8 8 8 8 8 8 8 8 8 7 7 6 7 6 5 3 2 2 3 4 5
6 4 5 9 11 12 10 9 6 4 2 4 4 3 9 0 6 8 8 8 8 8 8 8 9 9 9 9 9 9 8 8 7 6 6 6 4 3 3 3 5 4 3 3
9 8 7 8 7 6 4 2 5 5 4 4 7 6 8 5 9 8 7 8 8 8 7 7 7 8 8 9 9 9 9 8 8 7 7 7 7 6 5 5 6 4 3 1
7 9 10 9 8 5 3 6 4 4 2 6 6 5 8 7 8 9 9 9 9 8 8 8 9 9 9 10 10 10 10 8 8 8 7 7 8 7 7 6 6 5 3 1
5 7 6 7 12 9 7 10 7 6 5 5 5 5 6 1 7 9 9 9 9 9 9 10 11 11 10 11 10 10 10 8 8 8 7 7 7 5 5 6 6 5 4 2
6 7 6 6 7 11 7 7 9 6 3 3 5 3 5 2 4 7 8 9 9 10 10 10 10 10 10 10 10 11 10 8 8 8 7 6 7 6 6 6 5 4 3 2
9 8 8 4 3 3 8 8 6 5 4 4 5 3 5 8 9 8 9 10 10 9 9 9 8 9 9 9 9 9 9 9 8 8 7 7 7 7 7 6 6 4 2 0
2 5 5 3 1 3 2 3 4 5 5 6 4 7 7 10 10 10 11 11 11 11 10 9 8 9 9 8 8 8 8 7 7 8 7 8 8 8 7 6 7 5 4 2
4 3 1 4 5 3 3 4 5 5 6 6 5 8 8 8 8 8 8 9 10 11 10 10 10 9 9 9 8 8 7 7 7 8 8 8 8 8 8 8 7 7 6 4
5 4 3 8 7 5 2 2 2 3 2 4 5 8 6 3 5 6 7 8 8 9 9 9 9 10 10 10 9 8 8 8 7 8 9 9 8 9 8 8 7 6 6 5
4 2 4 6 7 5 6 7 3 4 3 5 7 8 9 8 8 8 9 9 9 10 10 10 10 10 10 10 10 10 9 8 8 9 10 10 10 9 9 8 7 6 5 5
4 2 5 8 11 8 7 9 8 8 9 10 10 10 12 11 11 12 11 8 8 10 10 12 12 11 10 10 10 10 10 9 9 10 10 11 9 8 8 7 7 6 6 6
2 3 4 7 9 7 9 11 11 10 9 10 10 11 12 11 8 9 9 8 9 11 12 11 11 10 10 11 11 10 10 10 10 11 11 10 9 9 8 8 7 6 6 5
4 5 4 7 7 7 10 11 12 11 10 10 12 13 10 9 8 8 7 6 8 9 8 8 6 6 6 7 9 11 11 10 11 11 11 10 10 9 9 8 7 6 5 4
7 5 3 3 1 8 10 7 10 13 14 13 11 11 9 9 6 5 6 8 8 8 8 7 6 4 1 1 5 8 9 10 11 11 11 11 10 10 9 8 8 7 4 4
7 7 4 3 3 8 12 10 5 7 9 10 10 7 6 6 4 3 0 7 8 8 8 6 6 6 5 5 2 3 5 7 9 10 10 11 11 10 10 9 8 6 5 4
5 5 5 3 1 5 12 10 6 2 5 7 5 6 7 8 4 4 2 6 9 9 8 8 7 7 7 5 6 7 5 3 4 6 7 8 8 9 10 10 7 5 5 5
3 3 2 3 3 8 15 12 5 1 5 3 4 6 7 7 7 7 9 8 8 9 9 8 8 7 6 6 8 9 7 5 2 3 4 5 6 6 7 6 5 5 5 5
5 3 3 4 4 9 7 7 2 5 3 3 5 5 5 4 7 10 11 10 10 9 8 8 8 6 5 7 9 8 5 3 4 5 5 4 3 3 4 5 5 5 6 5
1 1 2 4 7 11 12 13 14 6 4 4 4 5 7 7 8 8 9 10 9 8 7 6 7 6 4 5 7 7 4 4 5 5 3 2 1 2 3 5 5 4 5 4
4 5 3 5 8 15 18 16 13 5 5 5 5 6 7 8 9 10 10 9 9 7 7 6 6 5 3 3 4 5 5 5 5 4 3 2 1 2 2 3 4 5 5 4
4 4 5 7 9 15 15 19 17 10 1 4 3 3 5 7 9 12 11 10 9 7 6 6 7 6 6 4 4 4 4 5 4 3 2 1 1 1 1 2 2 3 3 4
6 6 5 6 7 10 19 23 23 17 7 3 3 1 1 5 9 11 11 10 10 8 7 6 6 6 5 5 5 4 4 4 4 2 1 1 1 2 3 4 4 7 5 4
Wind_Direction
3 34 303 286 280 234 263 275 279 277 295 337 304 281 271 269 259 146 135 135 121 111 92 70 73 93 111 135 146 153 154 155 155 157 164 176 204 220 219 207 189 179 175 169
13 285 260 270 271 280 287 286 283 292 310 332 292 282 278 281 244 168 154 150 142 134 111 90 84 90 111 135 145 150 156 160 166 168 164 167 179 208 214 198 169 169 171 168
213 247 267 278 288 312 293 253 253 265 317 345 329 315 317 330 68 137 155 159 159 158 152 139 119 109 118 136 153 163 166 167 172 164 149 140 144 189 181 146 134 164 168 160
237 240 245 259 270 267 269 253 248 259 339 305 343 304 295 244 189 172 177 170 168 162 155 150 142 138 141 146 149 153 166 171 176 172 171 170 179 181 184 143 126 143 148 154
258 263 277 266 259 253 244 245 244 247 255 299 299 266 286 135 188 195 192 185 180 181 177 170 164 160 159 156 155 158 163 174 178 176 176 179 177 167 138 104 104 120 137 154
257 260 249 241 257 234 216 68 16 41 76 289 249 199 272 230 197 186 199 202 197 198 195 187 170 159 160 161 161 162 166 177 180 178 176 179 171 157 137 114 114 120 135 165
279 265 245 238 255 256 115 90 18 339 11 249 255 203 246 235 186 174 184 198 203 197 192 190 180 179 174 170 168 167 170 179 182 179 178 177 172 163 153 138 121 119 124 144
258 278 249 225 207 197 181 149 169 211 219 264 301 252 268 205 164 167 171 179 184 188 191 194 193 188 181 176 169 165 172 177 178 176 176 173 166 160 156 149 136 136 143 173
232 261 287 284 200 157 153 178 182 159 231 255 280 319 350 354 170 178 186 186 190 196 197 196 193 186 180 176 174 172 173 176 178 172 164 162 159 154 150 145 131 127 126 149
214 261 285 310 71 147 152 157 114 142 198 236 269 250 217 223 222 217 211 210 212 214 208 196 184 180 178 176 174 171 172 179 179 170 165 160 160 155 150 142 135 130 122 337
193 212 292 347 269 230 194 181 157 163 180 173 224 262 229 208 215 221 227 225 218 212 207 194 181 173 168 164 166 173 179 181 181 174 167 160 162 160 154 151 155 159 159 191
3 123 264 283 288 264 233 217 167 186 232 191 186 256 257 220 214 215 234 236 224 210 200 185 173 165 164 169 172 176 179 181 184 175 168 170 167 166 166 166 168 168 175 190
18 76 25 342 337 0 346 300 174 158 166 197 201 259 313 281 228 225 240 242 224 209 192 176 170 174 177 179 180 181 181 180 174 168 169 172 173 174 178 178 177 183 191 195
101 104 180 217 244 265 285 277 224 154 189 232 228 251 286 281 266 259 254 245 215 199 188 179 183 189 190 187 185 185 187 179 170 167 171 177 182 183 184 185 188 196 199 200
102 193 239 251 262 266 266 268 259 225 211 216 236 237 249 245 244 251 256 251 210 195 192 189 191 197 197 193 190 189 188 183 175 173 181 189 189 188 189 195 203 208 210 206
138 217 258 275 273 287 283 270 265 258 236 227 234 245 247 252 249 251 253 238 207 198 197 196 198 199 199 198 195 192 193 191 182 186 193 193 189 191 197 202 204 206 205 192
199 204 247 267 285 313 276 250 250 249 232 222 234 239 243 251 238 233 238 213 192 184 183 187 191 198 208 211 201 199 201 193 191 199 200 195 193 196 199 195 188 190 185 171
207 201 203 247 309 256 258 250 245 257 261 244 235 234 227 221 218 222 190 150 134 124 120 119 120 117 117 222 212 206 198 194 199 202 200 195 193 195 191 184 183 182 172 175
197 171 164 165 245 278 286 271 235 235 267 257 234 218 178 153 91 2 182 133 132 128 127 121 115 104 72 42 42 132 174 193 199 202 200 194 191 188 184 187 188 182 176 188
57 103 134 138 198 264 267 279 321 274 288 295 185 171 160 135 132 224 182 113 113 116 117 115 108 91 71 51 68 78 88 131 193 208 202 190 185 184 186 190 188 179 179 195
58 41 136 153 212 262 267 288 315 166 260 319 116 141 151 174 196 173 140 127 125 121 117 110 96 82 73 78 82 76 72 75 93 113 135 153 168 181 189 189 182 178 180 187
174 184 200 167 212 252 297 338 267 223 231 109 103 125 143 157 135 135 140 140 134 124 121 114 104 96 89 96 96 89 81 78 83 84 91 109 137 172 185 179 181 178 175 181
220 180 223 213 237 278 317 308 294 251 167 140 127 137 135 136 149 151 151 149 141 136 140 136 129 123 111 113 117 116 134 123 102 91 86 87 123 165 171 177 180 173 170 174
352 15 316 288 284 305 313 315 310 263 162 160 163 161 155 164 169 164 160 155 147 148 156 153 146 154 176 164 140 143 146 130 118 123 134 136 145 181 194 186 173 168 173 183
283 341 325 305 306 318 323 332 328 315 196 140 152 183 178 168 171 171 168 162 160 164 169 164 169 190 210 191 171 162 145 121 110 116 132 141 141 128 121 122 129 173 185 189
216 216 235 266 284 300 301 311 317 313 288 186 153 157 192 166 169 167 166 163 164 171 175 179 189 203 214 186 178 174 152 130 117 92 101 142 143 123 119 115 85 53 64 80
Height
1496 1501 1505 1502 1499 1500 1500 1502 1502 1494 1484 1487 1489 1488 1481 1476 1475 1476 1478 1479 1480 1482 1483 1483 1483 1483 1484 1486 1488 1490 1493 1495 1497 1500 1503 1506 1509 1512 1515 1517 1519 1522 1525 1528
1500 1503 1497 1494 1494 1495 1498 1502 1501 1493 1484 1486 1488 1485 1478 1474 1473 1473 1475 1477 1479 1481 1481 1482 1482 1482 1483 1484 1486 1488 1490 1492 1495 1497 1499 1502 1506 1509 1512 1515 1516 1519 1522 1525
1503 1498 1493 1493 1493 1495 1496 1499 1498 1496 1487 1485 1488 1490 1482 1474 1472 1474 1475 1476 1477 1478 1479 1480 1480 1481 1482 1483 1485 1487 1488 1491 1493 1495 1498 1500 1503 1506 1509 1511 1513 1516 1519 1522
1496 1491 1491 1492 1492 1491 1498 1488 1488 1489 1496 1504 1496 1511 1488 1478 1476 1476 1475 1475 1476 1477 1478 1479 1479 1480 1481 1482 1484 1485 1487 1489 1491 1493 1495 1496 1499 1502 1505 1507 1510 1513 1516 1519
1494 1488 1489 1491 1488 1485 1487 1481 1484 1486 1493 1502 1498 1506 1496 1480 1480 1477 1474 1474 1475 1476 1477 1478 1479 1480 1481 1482 1483 1484 1486 1488 1490 1491 1493 1495 1498 1501 1503 1505 1507 1510 1513 1516
1488 1483 1484 1482 1479 1479 1478 1482 1487 1494 1502 1514 1500 1505 1501 1484 1477 1474 1473 1473 1475 1476 1477 1478 1479 1480 1480 1481 1482 1483 1485 1487 1488 1490 1491 1494 1497 1500 1502 1503 1505 1508 1511 1514
1489 1481 1476 1475 1480 1478 1481 1498 1516 1516 1522 1517 1493 1496 1492 1471 1468 1470 1471 1473 1474 1475 1476 1476 1477 1478 1479 1480 1481 1482 1484 1485 1487 1488 1490 1492 1495 1498 1500 1502 1503 1506 1509 1512
1497 1492 1473 1468 1472 1479 1481 1493 1515 1523 1523 1511 1489 1491 1480 1465 1466 1468 1469 1470 1472 1473 1473 1474 1474 1475 1476 1478 1479 1480 1482 1484 1485 1487 1488 1491 1493 1496 1498 1500 1502 1505 1507 1510
1492 1487 1465 1461 1461 1467 1478 1488 1489 1505 1505 1509 1500 1485 1475 1468 1470 1469 1468 1469 1469 1470 1470 1471 1472 1473 1474 1476 1477 1479 1480 1482 1483 1485 1487 1489 1492 1494 1496 1499 1501 1503 1505 1507
1480 1487 1471 1462 1461 1463 1468 1475 1491 1503 1513 1517 1503 1493 1491 1476 1472 1469 1467 1466 1466 1467 1467 1468 1469 1470 1472 1474 1475 1477 1478 1480 1482 1483 1485 1487 1490 1492 1494 1496 1498 1500 1503 1505
1475 1484 1478 1469 1471 1472 1472 1476 1482 1494 1500 1513 1515 1501 1473 1469 1467 1466 1464 1462 1462 1463 1464 1465 1466 1467 1470 1472 1473 1475 1476 1478 1479 1481 1483 1485 1487 1490 1492 1494 1496 1498 1500 1501
1480 1486 1489 1479 1470 1467 1471 1476 1484 1499 1499 1500 1507 1497 1461 1462 1460 1460 1460 1459 1459 1460 1460 1462 1463 1465 1467 1469 1471 1472 1473 1475 1477 1478 1480 1482 1485 1487 1490 1492 1493 1495 1496 1499
1481 1490 1498 1493 1486 1475 1476 1477 1480 1487 1495 1499 1503 1491 1461 1460 1459 1458 1457 1456 1456 1457 1458 1459 1460 1462 1464 1466 1468 1469 1470 1472 1474 1476 1477 1479 1482 1484 1487 1489 1491 1492 1494 1496
1478 1491 1498 1499 1491 1482 1480 1476 1477 1485 1496 1495 1490 1481 1467 1462 1459 1455 1453 1452 1451 1453 1454 1455 1457 1459 1460 1462 1464 1466 1468 1469 1471 1473 1475 1477 1479 1481 1484 1486 1489 1491 1493 1494
1479 1489 1488 1484 1478 1476 1475 1472 1470 1475 1478 1484 1476 1470 1462 1457 1455 1452 1449 1448 1447 1449 1450 1452 1454 1456 1457 1458 1460 1462 1464 1466 1468 1470 1472 1474 1477 1480 1482 1484 1486 1488 1490 1492
1479 1484 1483 1482 1475 1474 1473 1468 1466 1465 1464 1466 1464 1461 1450 1448 1448 1447 1445 1444 1443 1444 1446 1449 1451 1453 1454 1456 1457 1459 1461 1463 1465 1466 1469 1471 1474 1477 1479 1481 1484 1486 1487 1489
1479 1483 1486 1488 1479 1476 1476 1462 1458 1456 1452 1454 1456 1450 1444 1444 1443 1442 1441 1440 1439 1441 1444 1447 1450 1452 1453 1454 1455 1456 1457 1459 1461 1463 1465 1468 1470 1473 1475 1478 1480 1482 1484 1486
1474 1479 1485 1488 1484 1489 1465 1450 1448 1447 1443 1440 1439 1437 1437 1438 1439 1439 1438 1438 1438 1441 1444 1447 1449 1450 1450 1451 1452 1453 1454 1455 1457 1458 1460 1463 1465 1468 1471 1473 1476 1478 1480 1482
1465 1473 1483 1487 1488 1479 1459 1445 1444 1445 1441 1431 1430 1431 1433 1435 1438 1439 1438 1438 1440 1443 1445 1447 1448 1448 1448 1449 1449 1449 1449 1451 1453 1454 1456 1458 1461 1463 1466 1469 1471 1474 1477 1478
1466 1470 1479 1484 1487 1483 1457 1439 1439 1442 1442 1427 1425 1428 1431 1434 1443 1441 1439 1440 1441 1443 1445 1446 1447 1447 1447 1447 1447 1447 1447 1448 1449 1451 1453 1455 1457 1459 1462 1464 1468 1471 1473 1474
1474 1476 1479 1481 1483 1473 1447 1440 1441 1450 1445 1429 1427 1428 1430 1432 1434 1434 1436 1439 1441 1443 1444 1445 1446 1446 1446 1446 1446 1446 1446 1447 1447 1448 1450 1451 1453 1456 1458 1461 1464 1467 1469 1470
1472 1476 1478 1478 1481 1469 1441 1443 1442 1439 1432 1430 1429 1430 1430 1430 1430 1432 1434 1437 1440 1442 1443 1445 1445 1445 1446 1446 1446 1446 1446 1447 1447 1447 1448 1449 1451 1453 1456 1458 1460 1462 1464 1465
1469 1471 1471 1470 1467 1450 1447 1447 1441 1435 1432 1431 1430 1430 1430 1430 1430 1432 1434 1437 1439 1441 1443 1444 1445 1445 1446 1447 1447 1447 1447 1447 1447 1447 1448 1448 1449 1450 1452 1454 1456 1458 1460 1462
1470 1470 1469 1465 1458 1452 1448 1443 1438 1434 1431 1430 1430 1430 1430 1430 1430 1432 1434 1436 1439 1441 1442 1443 1444 1445 1446 1447 1447 1447 1447 1447 1446 1446 1446 1447 1447 1448 1449 1451 1453 1455 1457 1459
1474 1474 1472 1468 1460 1452 1444 1443 1440 1436 1432 1430 1430 1430 1429 1429 1429 1430 1432 1435 1438 1440 1442 1443 1444 1445 1446 1446 1447 1447 1447 1446 1445 1445 1445 1445 1446 1446 1447 1449 1451 1453 1455 1456
1471 1471 1472 1468 1462 1461 1451 1444 1442 1439 1433 1430 1429 1428 1428 1427 1427 1428 1431 1434 1437 1439 1441 1442 1443 1444 1445 1446 1446 1446 1446 1446 1445 1444 1444 1444 1445 1445 1447 1448 1450 1451 1453 1454